Regional Weather Roundup
Issued by NWS

Home | Current Version | Previous Version | Graphics & Text | Print | Product List | Glossary On
Versions: 1 2 3 4 5 6 7 8 9 10 11 12 13 14 15 16 17 18 19 20 21 22 23 24 25 26 27 28 29 30 31 32 33 34 35 36 37 38 39 40 41 42 43 44 45 46 47 48 49 50
000
ASUS43 KBIS 250020
RWRND

NORTH DAKOTA REGIONAL WEATHER ROUNDUP
NATIONAL WEATHER SERVICE BISMARCK ND
700 PM CDT THU APR 24 2014

NOTE: "FAIR" INDICATES FEW OR NO CLOUDS BELOW 12,000 FEET WITH NO
SIGNIFICANT WEATHER AND/OR OBSTRUCTIONS TO VISIBILITY.


NDZ001>003-009>011-017-250100-
NORTHWEST NORTH DAKOTA

CITY           SKY/WX    TMP DP  RH WIND       PRES   REMARKS
WILLISTON      MOSUNNY   58  25  28 W8        29.70S
6HR MIN TEMP:  49; 6HR MAX TEMP:  61; 6HR PCP: TRACE;

MINOT          MOSUNNY   56  33  42 N10       29.69R
MINOT AFB      PTSUNNY   56  33  41 NW16      29.68R
$$

NDZ018>021-031>035-040>046-250100-
SOUTHWEST NORTH DAKOTA

CITY           SKY/WX    TMP DP  RH WIND       PRES   REMARKS
BISMARCK       SUNNY     61  25  25 NW14G25   29.70R
6HR MIN TEMP:  59; 6HR MAX TEMP:  65;

DICKINSON      SUNNY     58  21  24 NW22      29.70S
GARRISON         N/A     59  28  30 NW14      29.70R
6HR MIN TEMP:  55; 6HR MAX TEMP:  61;

HETTINGER ARPT SUNNY     60  15  17 NW16      29.73S
$$

NDZ004>008-012>016-024-026-027-054-250100-
NORTHEAST NORTH DAKOTA

CITY           SKY/WX    TMP DP  RH WIND       PRES   REMARKS
GRAND FORKS    CLOUDY    43  40  89 E6        29.71R
GRND FRKS AFB  CLOUDY    43  43 100 E6        29.70S
DEVILS LAKE    PTSUNNY   48  39  71 NE15      29.68R
$$

NDZ022-023-025-028>030-036>039-047>053-250100-
SOUTHEAST NORTH DAKOTA

CITY           SKY/WX    TMP DP  RH WIND       PRES   REMARKS
FARGO          LGT RAIN  50  43  77 NE7       29.69R
6HR MIN TEMP:  43; 6HR MAX TEMP:  52; 6HR PCP: TRACE;

JAMESTOWN      MOSUNNY   53  34  48 N15G24    29.66R
$$




USA.gov is the U.S. government's official web portal to all federal, state and local government web resources and services.